Hourly Data Report for October 20, 2019

All times are specified in Local Standard Time (LST). Add 1 hour to adjust for Daylight Saving Time where and when it is observed.

CORAL HARBOUR A
NUNAVUT
Current Station Operator: NAVCAN

64°11'36.000" N
83°21'34.000" W
62.20 m
2301002
71915
YZS

Download Data

Hourly Data (October 2019)
Hourly Data Report for October 20, 2019
TIME Temp Definition
°C
Dew Point Definition
°C
Rel Hum Definition
%
Wind Dir Definition
10's deg

Wind Spd Definition
km/h
Visibility Definition
km
Stn Press Definition
kPa
Hmdx Definition


Wind Chill Definition


Weather Definition


00:00 0.2 -0.5 94 14 32 9.7 100.00     Snow
01:00 0.2 -0.8 93 14 32 9.7 99.94     Snow
02:00 0.3 -0.8 92 14 38 9.7 99.90     Snow
03:00 0.3 -0.8 93 14 36 9.7 99.85     Snow
04:00 0.4 -0.6 93 14 40 12.9 99.79     Snow
05:00 0.4 -0.5 94 13 37 9.7 99.70     Snow
06:00 0.5 -0.5 93 14 40 16.1 99.63     Snow
07:00 0.5 -0.5 93 14 40 19.3 99.62     Snow
08:00 0.5 -0.3 94 14 42 9.7 99.60     Fog
09:00 0.0 -0.3 98 13 41 1.6 99.51   -7 Snow
10:00 0.0 -0.2 98 13 41 1.2 99.49   -7 Snow
11:00 0.0 -0.2 98 14 39 1.6 99.46   -7 Snow
12:00 0.1 -0.2 98 14 36 1.6 99.41     Snow
13:00 0.2 0.0 98 14 32 1.6 99.40     Snow
14:00 0.3 0.0 98 14 28 3.2 99.37     Snow
15:00 0.7 0.4 98 14 32 4.8 99.32     Snow
16:00 1.0 0.7 98 14 32 6.4 99.27     Rain,Snow,Fog
17:00 1.1 0.8 98 14 26 9.7 99.26     Rain,Fog
18:00 1.3 1.1 99 15 32 6.4 99.23     Rain,Fog
19:00 1.4 1.2 99 16 30 0.8 99.20     Drizzle,Fog
20:00 1.5 1.4 99 17 32 0.8 99.24     Drizzle,Fog
21:00 1.4 1.4 99 18 30 0.4 99.30     Drizzle,Fog
22:00 1.2 1.1 99 19 26 1.2 99.35     Drizzle,Fog
23:00 1.1 1.1 99 19 27 1.2 99.40     Drizzle,Fog

Notes on Data Quality.

Legend

  • E = Estimated
  • M = Missing
  • NA = Not Available
Date modified: